RH
71 71 72 71 69 62 59 57 57 57 56 56 61 61 59 59 62 68 70 72 77 75 72 75 73 73 71 68 67 64 58 61 66 57 52 47 44 41 41 43 44 46 46
70 72 71 73 71 69 68 61 60 59 57 55 61 63 61 60 61 66 67 67 71 76 74 73 70 72 74 74 76 72 64 60 61 63 54 52 50 47 44 41 43 44 44
74 75 76 77 78 77 72 67 63 61 59 59 61 63 62 61 62 63 66 65 66 68 71 72 69 69 73 74 73 76 73 71 63 64 64 58 53 49 49 47 43 42 42
73 76 76 77 79 79 72 71 67 62 61 61 61 62 62 60 65 64 67 71 70 68 67 70 70 68 66 69 72 73 74 77 80 80 74 68 61 50 53 54 53 48 45
69 76 76 78 79 76 78 75 70 68 62 62 63 64 64 63 60 64 68 66 68 69 68 68 69 67 65 64 67 66 71 78 86 88 88 83 78 75 67 58 59 54 54
67 74 76 79 79 78 76 74 75 75 72 71 72 70 67 64 62 59 58 67 70 71 70 65 63 65 66 66 65 66 74 80 87 87 83 81 81 79 72 70 71 70 65
70 73 78 82 85 83 81 80 79 81 80 82 78 77 77 70 60 60 61 61 69 70 70 71 72 68 66 66 66 67 69 75 84 88 89 89 86 84 80 79 75 72 71
75 77 81 86 89 90 91 89 88 86 85 86 86 82 80 77 68 61 62 69 71 72 71 73 77 77 78 76 75 78 79 80 80 82 88 87 89 89 89 86 82 78 77
79 81 83 85 88 91 93 93 92 94 91 87 86 85 85 82 77 72 74 78 84 82 85 83 83 84 82 82 86 90 88 91 89 80 78 76 80 82 90 92 90 80 77
77 80 84 86 86 88 87 88 89 93 95 97 93 88 83 81 77 74 80 86 94 94 93 93 92 92 91 88 91 95 99 97 94 96 94 87 84 85 86 92 97 99 96
72 78 78 81 84 85 88 88 90 93 95 98 99 95 92 88 85 84 85 88 94 95 97 96 96 90 87 88 90 95 99 91 98 99 100 100 99 97 95 93 93 98 100
63 70 75 80 84 85 84 89 91 94 98 99 100 100 97 92 88 85 84 87 86 94 95 94 89 86 88 90 93 94 93 94 100 100 100 100 100 98 100 100 100 100 99
54 60 64 72 77 80 85 89 94 95 96 98 98 98 98 94 89 87 84 86 87 91 91 90 92 96 97 98 98 98 99 100 100 100 100 100 100 100 99 99 96 99 99
58 58 58 63 69 78 80 83 88 92 95 92 96 97 96 93 90 88 89 91 93 95 93 93 99 100 100 100 100 100 100 99 100 100 100 100 99 95 91 76 91 93 96
80 77 69 70 72 73 76 81 85 86 86 89 90 93 99 100 90 92 94 94 92 91 95 99 100 100 100 99 96 95 100 100 98 93 82 87 78 73 77 91 99 100 99
75 80 91 86 90 90 87 95 97 92 86 85 88 87 88 89 93 100 99 100 100 100 100 100 99 95 92 92 95 93 90 84 77 76 75 76 82 98 98 93 95 99 99
76 77 78 100 100 100 100 100 100 100 100 98 97 99 100 96 100 99 96 93 93 91 84 84 83 82 84 86 87 84 80 77 80 85 85 82 90 97 99 99 99 97 97
71 76 73 98 99 100 99 95 94 91 90 90 83 85 81 75 69 68 68 72 74 76 83 92 99 98 96 91 88 89 89 92 94 95 93 87 83 84 94 94 97 99 100
78 85 90 100 100 97 91 89 92 90 92 98 90 85 82 79 77 76 71 73 92 99 99 99 97 96 97 99 100 100 99 98 99 98 98 90 82 86 98 100 100 100 100
83 96 100 100 98 92 94 97 99 100 100 100 100 100 100 96 98 100 100 99 99 99 99 99 98 94 94 97 99 99 99 99 99 100 91 88 92 93 99 98 97 98 99
81 95 100 99 100 99 100 100 100 100 100 100 100 100 100 98 100 100 100 100 98 95 96 99 96 93 95 99 99 99 100 100 100 100 98 93 98 99 100 98 99 97 99
85 97 99 99 99 100 100 100 100 100 100 100 100 100 100 99 99 100 100 100 100 100 100 100 100 99 99 99 100 100 100 99 99 100 100 100 100 99 100 96 100 99 99
89 99 99 99 99 100 100 100 100 100 100 100 100 100 100 99 100 100 100 100 100 100 99 99 99 99 100 99 100 100 99 99 97 100 100 99 100 99 100 100 100 99 100
96 100 99 99 99 99 100 100 100 100 100 100 100 100 100 100 100 100 99 99 99 99 98 99 99 100 100 100 99 96 94 98 95 93 95 100 100 100 99 100 99 100 99
93 99 99 100 100 100 100 100 99 99 96 94 97 98 99 97 97 96 94 91 89 87 84 82 78 75 82 90 94 94 94 89 97 95 90 89 95 93 98 98 100 100 97
94 96 97 98 97 96 96 96 92 85 80 73 66 62 58 56 56 53 52 51 50 48 46 45 43 42 41 41 46 68 79 87 86 90 90 88 83 80 82 88 92 96 93
Wind_Speed
38 39 36 38 39 42 42 39 34 29 26 28 26 23 24 25 25 26 25 23 23 23 22 23 22 20 20 20 19 19 18 15 12 18 19 20 18 17 19 21 23 26 27
41 40 41 39 40 40 41 41 36 32 28 30 27 25 26 25 25 26 28 27 27 27 26 26 26 24 24 23 22 23 24 23 21 23 27 26 26 23 22 22 24 26 29
37 38 36 35 36 38 40 41 38 34 32 31 32 32 30 27 27 26 26 28 30 30 29 29 29 28 29 28 27 27 27 26 26 28 26 24 28 27 27 27 27 29 31
35 36 36 37 37 38 40 40 39 36 35 35 34 34 33 30 28 28 28 29 30 31 32 33 33 33 32 31 30 31 32 31 30 30 30 29 30 33 30 33 34 34 34
36 35 37 37 37 40 39 40 40 39 38 37 37 37 36 35 35 32 31 33 32 32 33 34 35 36 36 34 33 34 34 33 27 25 24 22 26 23 26 28 30 36 39
37 36 36 35 37 39 40 40 39 40 39 38 40 40 41 41 40 40 39 36 35 36 38 38 37 36 36 37 37 37 37 33 28 26 28 26 29 28 33 32 29 24 20
35 34 34 35 36 37 39 37 39 39 37 38 40 39 40 43 44 42 41 42 40 40 41 40 39 39 39 39 39 39 40 40 40 36 34 33 34 31 33 30 29 31 33
34 33 33 34 34 33 32 35 35 36 36 36 38 39 39 41 42 43 43 42 42 43 44 43 41 40 39 39 39 40 42 41 39 38 43 48 45 41 37 39 39 37 38
33 34 35 36 34 32 33 34 34 32 32 36 37 37 39 39 38 39 38 40 42 44 39 40 40 38 37 37 36 36 40 37 37 39 39 40 41 41 42 34 26 23 26
34 34 32 34 35 36 36 36 35 32 31 28 32 35 38 38 37 36 36 37 32 35 35 37 38 38 37 37 38 36 34 34 36 34 37 38 38 37 37 40 45 32 29
26 29 33 37 37 34 31 31 29 29 26 26 28 31 33 33 33 32 32 36 34 30 28 27 27 33 34 34 37 40 37 38 35 33 35 31 32 36 39 40 42 39 33
30 32 34 33 31 29 32 30 29 28 26 26 26 26 30 32 31 30 29 32 34 32 27 27 30 30 29 29 31 35 36 38 43 33 29 30 28 29 30 30 33 38 45
27 31 32 31 32 31 31 27 26 28 26 24 23 23 23 29 30 28 28 28 29 37 35 32 29 25 24 24 25 27 30 33 35 28 26 27 27 28 30 30 30 31 34
21 24 27 29 29 28 28 27 25 25 24 22 22 20 20 23 25 25 24 27 30 33 34 36 32 30 29 27 27 28 22 16 17 19 18 20 21 21 22 24 24 26 28
13 11 15 21 23 24 22 21 21 22 24 22 21 20 19 17 20 20 19 20 21 22 24 27 26 23 18 11 9 8 7 5 5 6 8 11 14 18 21 21 20 22 22
8 8 10 15 19 23 23 15 17 18 18 19 17 18 16 16 15 15 13 15 14 12 9 8 6 4 4 5 6 5 4 3 5 7 7 11 14 12 16 17 15 16 19
2 2 5 12 16 20 19 18 16 13 14 17 16 14 15 14 13 10 9 8 8 8 6 4 3 0 2 2 1 2 1 5 8 10 10 12 8 9 10 11 14 16 16
5 4 4 11 14 19 21 19 19 19 20 21 18 19 18 17 14 11 12 11 13 11 11 9 8 7 5 3 3 6 8 10 12 11 11 9 8 12 12 13 14 15 16
7 6 4 9 12 18 21 22 19 21 20 26 28 24 21 20 18 16 13 16 17 14 12 11 8 5 5 5 7 9 10 11 11 11 11 10 11 13 11 11 13 13 13
8 8 10 13 16 18 16 17 19 21 19 14 19 23 21 20 19 19 18 18 16 13 11 9 7 5 6 6 7 7 9 10 10 10 10 12 14 14 11 13 13 9 9
7 10 14 14 13 13 13 13 15 19 21 22 19 17 17 20 17 17 16 14 14 11 9 7 7 7 7 8 9 9 9 9 11 13 13 14 14 14 12 9 8 7 6
9 11 14 16 18 17 16 17 19 22 21 23 22 21 19 20 19 15 16 15 14 13 11 11 11 11 11 12 13 15 15 15 16 16 16 14 15 15 15 14 10 9 5
14 15 17 18 19 20 19 17 18 18 21 21 20 19 21 20 19 17 17 17 16 15 16 16 15 15 15 15 17 18 19 20 20 18 16 15 16 14 14 14 9 6 6
14 16 16 17 22 20 20 22 21 20 21 21 23 24 24 23 22 21 20 19 18 17 17 17 17 18 18 19 20 20 21 21 18 17 16 15 13 13 13 10 9 9 5
20 20 23 19 20 23 23 24 24 23 23 22 24 25 24 22 19 17 15 15 15 15 15 15 16 18 18 18 20 22 20 22 17 16 14 12 11 12 11 12 10 8 7
28 27 28 27 26 25 25 24 25 26 26 25 25 26 24 22 19 17 16 15 15 15 15 16 16 17 19 21 21 18 19 22 22 17 16 14 12 10 10 10 10 11 11
Wind_Direction
202 205 207 211 217 222 227 230 228 226 227 230 237 242 243 245 246 242 243 246 248 253 254 255 259 259 261 260 264 262 260 255 252 281 283 287 288 286 283 276 267 258 257
202 202 205 209 212 216 222 229 229 226 225 228 231 237 244 247 249 247 243 244 245 248 253 254 257 258 261 261 262 263 263 261 260 271 281 280 283 285 285 281 275 269 264
197 199 202 204 205 211 217 226 228 228 227 228 231 236 241 245 247 249 247 246 247 250 252 254 258 259 258 259 260 263 264 266 262 261 271 281 283 284 282 278 272 269 267
195 196 199 202 204 209 217 222 227 228 228 229 230 233 235 238 245 248 250 251 252 253 254 256 257 259 262 264 264 263 264 263 263 264 267 271 275 279 278 277 273 270 269
191 194 200 202 205 211 214 219 227 228 229 231 231 232 234 236 240 245 248 251 254 256 258 259 259 259 262 263 264 268 267 267 263 265 264 269 271 271 264 273 273 275 275
190 195 198 199 201 208 214 218 221 228 231 232 234 235 235 235 238 240 244 249 252 255 257 260 262 264 264 264 264 265 265 262 256 258 264 262 265 263 272 268 266 265 276
189 194 196 197 200 206 212 214 218 220 225 228 234 235 235 239 240 241 242 244 248 252 256 257 260 262 264 265 269 271 271 268 264 257 262 262 267 262 267 265 258 257 262
187 191 193 195 200 202 205 212 217 219 220 225 230 235 237 240 243 245 246 246 247 250 252 254 255 258 261 265 270 271 272 274 272 270 266 269 266 266 262 262 263 263 270
187 192 193 194 197 198 203 210 215 216 220 226 231 234 237 241 244 246 243 242 243 247 247 251 252 255 259 262 262 262 270 270 276 279 279 279 280 282 278 264 264 256 264
191 194 192 195 199 200 206 210 215 216 219 221 227 234 240 243 247 247 242 240 238 244 248 249 250 255 258 262 258 254 256 262 265 266 272 279 283 283 283 275 268 254 251
186 190 197 203 204 207 207 209 210 213 217 219 225 232 237 244 247 247 245 237 235 239 241 247 247 255 258 260 259 255 253 268 265 266 269 267 270 275 277 283 283 268 254
195 195 201 203 200 203 208 208 209 208 209 214 217 226 234 242 248 249 247 242 245 236 238 243 255 263 265 265 263 263 267 270 265 268 270 273 273 278 277 277 275 264 265
194 199 205 207 206 203 202 204 202 206 207 210 213 220 225 235 246 251 254 252 249 244 249 252 255 257 261 259 261 264 268 267 269 264 264 269 279 288 293 296 297 296 293
190 199 206 207 206 203 205 206 204 203 208 211 212 218 224 232 243 252 248 248 249 249 250 252 254 259 261 264 268 277 281 280 271 273 277 291 295 301 304 309 306 305 300
121 156 193 211 205 200 200 205 206 209 212 210 219 218 212 218 246 252 253 256 258 256 258 258 262 264 269 268 273 280 280 266 274 289 304 305 309 316 315 318 318 316 312
120 135 155 170 180 190 188 188 217 221 223 223 229 233 232 236 237 242 245 249 246 243 218 216 208 233 263 280 287 276 276 268 316 318 309 319 322 323 327 331 330 328 323
78 145 159 165 172 175 173 159 124 110 202 217 214 207 211 211 210 210 200 194 191 198 187 169 146 28 323 322 346 51 5 321 323 326 321 327 330 330 338 338 333 336 334
17 0 186 173 167 171 166 157 142 135 117 100 112 128 131 131 133 135 136 137 114 109 106 100 88 71 63 95 340 328 319 312 315 315 315 310 325 327 325 327 325 328 327
34 43 102 153 165 160 158 150 138 125 120 123 121 118 122 122 124 122 126 113 105 92 85 76 67 51 20 347 324 312 308 308 310 309 312 301 302 314 312 320 325 327 336
72 86 102 116 131 142 143 134 126 124 120 118 117 124 130 129 117 109 110 113 106 97 91 89 77 57 19 348 334 338 333 324 323 324 323 314 305 296 299 314 319 322 342
104 106 117 120 119 129 130 127 126 121 117 116 112 131 140 127 105 105 102 93 88 85 81 70 54 33 17 11 357 345 330 325 328 329 321 319 321 312 282 278 286 301 329
135 125 121 120 124 119 119 122 120 117 115 110 106 114 126 115 107 96 93 86 79 76 67 60 49 37 26 18 8 356 348 337 326 318 314 313 314 313 304 274 272 291 286
149 137 130 128 126 121 114 110 110 112 113 113 113 107 107 103 99 93 87 84 80 74 68 63 57 51 47 41 32 21 6 350 338 325 317 316 315 308 311 293 269 275 249
143 126 116 119 125 114 110 105 104 104 104 103 104 104 104 102 98 95 92 90 86 80 73 66 58 50 43 37 31 26 15 359 348 331 319 307 306 307 319 306 276 278 247
143 122 114 108 106 106 103 101 100 100 100 101 103 104 103 100 99 96 95 95 93 90 80 70 60 51 45 37 28 22 16 15 7 350 335 331 309 311 316 315 294 266 245
136 128 122 117 109 106 101 99 103 105 102 104 102 102 100 94 91 90 86 81 78 75 73 69 61 51 43 38 31 21 14 17 18 14 8 4 358 347 336 313 295 285 268